Date String (YYYY-MM-DD hh:mm:ss) UTC,Instrument flags,absolute air pressure of the measurement (hPa),sample flow rate (lpm),inlet stack bypass flow (lpm),air temperature of the measurement (°C),ambient temperature measured by the external sensor (°C),aerosol sample conditioner tube jacket temperature (°C),OPC LED temperature (°C),internal box temperature (°C),relative humidity of the measurement (%),span deviation,mass concentration of particles derived from Lorenz-Mie calculation of OPC scattering (μg/m³),mass concentration of particles derived from Lorenz-Mie calculation of OPC scattering (μg/m³),mass concentration of particles derived from Lorenz-Mie calculation of OPC scattering (μg/m³)
DateTimeUTC,F1_M11,P_M11,Q1_M11,Q2_M11,T1_M11,T2_M11,T3_M11,T4_M11,T5_M11,U1_M11,ZSPAN_M11,X0_M11,X2_M11,X1_M11
2023-10-20 17:00:00,SystemResetWarning,0832.2,4.99,000.00,028.4,025.2,000.0,036.8,030.0,14.0,0000.0,0012.20,0001.43,0000.57
2023-10-20 17:01:00,SystemResetWarning,0832.2,4.99,000.00,028.4,025.6,000.0,036.9,030.0,14.0,0000.0,0012.78,0001.44,0000.58
2023-10-20 17:02:00,SystemResetWarning,0832.2,5.00,000.00,028.4,026.0,000.0,036.9,030.1,13.9,0000.0,0012.25,0001.48,0000.58
2023-10-20 17:03:00,SystemResetWarning,0832.2,5.00,000.00,028.4,026.3,000.0,036.9,030.1,13.8,0000.0,0011.76,0001.48,0000.59
2023-10-20 17:04:00,SystemResetWarning,0832.2,5.00,000.00,028.4,026.7,000.0,036.9,030.2,13.9,0000.0,0011.04,0001.45,0000.59
2023-10-20 17:05:00,SystemResetWarning,0832.2,5.00,000.00,028.5,026.9,000.0,036.9,030.2,13.8,0000.0,0010.56,0001.48,0000.60
2023-10-20 17:06:00,SystemResetWarning,0832.2,5.00,000.00,028.5,027.2,000.0,036.9,030.3,13.7,0000.0,0009.92,0001.50,0000.59
2023-10-20 17:07:00,SystemResetWarning,0832.2,5.00,000.00,028.6,027.4,000.0,036.9,030.4,13.6,0000.0,0009.54,0001.42,0000.59
2023-10-20 17:08:00,SystemResetWarning,0832.2,4.97,000.00,028.6,026.4,000.0,036.9,030.4,13.6,0000.0,0009.35,0001.40,0000.60
2023-10-20 17:09:00,SystemResetWarning,0832.2,5.01,000.00,028.5,024.8,000.0,036.8,030.2,13.6,0000.0,0008.18,0001.43,0000.61
2023-10-20 17:10:00,SystemResetWarning,0832.2,5.01,000.00,028.5,024.7,000.0,036.8,030.1,13.5,0000.0,0008.09,0001.43,0000.62
2023-10-20 17:11:00,SystemResetWarning,0832.2,4.99,000.00,028.4,025.1,000.0,036.8,030.0,13.5,0000.0,0008.72,0001.46,0000.63
2023-10-20 17:12:00,SystemResetWarning,0832.1,5.01,000.00,028.4,025.4,000.0,036.8,029.9,13.7,0000.0,0009.22,0001.47,0000.62
2023-10-20 17:13:00,SystemResetWarning,0832.1,5.00,000.00,028.3,025.8,000.0,036.8,030.0,13.4,0000.0,0008.90,0001.47,0000.63
2023-10-20 17:14:00,SystemResetWarning,0832.1,5.00,000.00,028.4,026.2,000.0,036.8,030.1,13.8,0000.0,0009.17,0001.48,0000.63
2023-10-20 17:15:00,SystemResetWarning,0832.1,5.00,000.00,028.4,026.6,000.0,036.8,030.1,13.7,0000.0,0008.99,0001.52,0000.63
2023-10-20 17:16:00,SystemResetWarning,0832.1,5.00,000.00,028.4,026.9,000.0,036.8,030.2,13.7,0000.0,0009.31,0001.53,0000.63
2023-10-20 17:17:00,SystemResetWarning,0832.1,5.00,000.00,028.5,027.1,000.0,036.9,030.3,13.4,0000.0,0009.51,0001.55,0000.63
2023-10-20 17:18:00,SystemResetWarning,0832.0,5.00,000.00,028.5,027.1,000.0,036.9,030.4,12.9,0000.0,0009.71,0001.60,0000.64
2023-10-20 17:19:00,SystemResetWarning,0832.1,4.98,000.00,028.5,025.7,000.0,036.8,030.2,12.6,0000.0,0009.92,0001.64,0000.64
2023-10-20 17:20:00,SystemResetWarning,0832.1,5.03,000.00,028.4,024.6,000.0,036.7,030.1,13.1,0000.0,0009.92,0001.63,0000.63
2023-10-20 17:21:00,SystemResetWarning,0832.0,4.99,000.00,028.4,024.8,000.0,036.7,030.0,13.2,0000.0,0010.06,0001.69,0000.63
2023-10-20 17:22:00,SystemResetWarning,0832.1,5.00,000.00,028.3,025.1,000.0,036.7,029.8,13.3,0000.0,0009.54,0001.68,0000.63
2023-10-20 17:23:00,SystemResetWarning,0832.1,5.01,000.00,028.3,025.5,000.0,036.7,029.9,13.0,0000.0,0007.90,0001.69,0000.64
2023-10-20 17:24:00,SystemResetWarning,0832.1,4.99,000.00,028.3,025.9,000.0,036.8,030.0,13.1,0000.0,0007.91,0001.73,0000.65
2023-10-20 17:25:00,SystemResetWarning,0832.1,5.00,000.00,028.3,026.3,000.0,036.8,030.1,13.4,0000.0,0007.81,0001.76,0000.66
2023-10-20 17:26:00,SystemResetWarning,0832.0,5.00,000.00,028.4,026.7,000.0,036.8,030.2,13.7,0000.0,0007.54,0001.80,0000.67
2023-10-20 17:27:00,SystemResetWarning,0832.1,5.00,000.00,028.4,026.9,000.0,036.8,030.2,13.5,0000.0,0007.33,0001.97,0000.70
2023-10-20 17:28:00,SystemResetWarning,0832.0,5.01,000.00,028.4,027.2,000.0,036.8,030.3,13.4,0000.0,0007.60,0002.05,0000.72
2023-10-20 17:29:00,SystemResetWarning,0832.1,4.99,000.00,028.5,026.8,000.0,036.8,030.3,13.4,0000.0,0007.93,0002.05,0000.72
2023-10-20 17:30:00,SystemResetWarning,0832.1,4.99,000.00,028.4,025.2,000.0,036.7,030.1,13.4,0000.0,0008.86,0002.04,0000.73
2023-10-20 17:31:00,SystemResetWarning,0832.1,5.01,000.00,028.4,024.6,000.0,036.7,030.0,13.5,0000.0,0009.27,0002.09,0000.74
2023-10-20 17:32:00,SystemResetWarning,0832.1,5.01,000.00,028.3,024.9,000.0,036.7,029.9,13.4,0000.0,0009.23,0002.16,0000.75
2023-10-20 17:33:00,SystemResetWarning,0832.0,5.00,000.00,028.3,025.3,000.0,036.7,029.8,13.9,0000.0,0009.38,0002.17,0000.76
2023-10-20 17:34:00,SystemResetWarning,0832.0,4.99,000.00,028.3,025.7,000.0,036.7,029.9,14.1,0000.0,0010.73,0002.26,0000.76
2023-10-20 17:35:00,SystemResetWarning,0832.0,5.00,000.00,028.3,026.1,000.0,036.7,030.0,14.1,0000.0,0011.43,0002.34,0000.77
2023-10-20 17:36:00,SystemResetWarning,0832.0,5.01,000.00,028.3,026.5,000.0,036.7,030.1,14.3,0000.0,0011.56,0002.34,0000.78
2023-10-20 17:37:00,SystemResetWarning,0832.0,5.00,000.00,028.3,026.8,000.0,036.7,030.1,14.2,0000.0,0011.91,0002.37,0000.78
2023-10-20 17:38:00,SystemResetWarning,0832.0,5.00,000.00,028.4,027.0,000.0,036.8,030.2,14.3,0000.0,0012.99,0002.36,0000.78
2023-10-20 17:39:00,SystemResetWarning,0832.0,5.00,000.00,028.4,027.2,000.0,036.8,030.3,14.3,0000.0,0012.93,0002.33,0000.78
2023-10-20 17:40:00,SystemResetWarning,0832.0,4.98,000.00,028.4,026.3,000.0,036.8,030.3,13.8,0000.0,0012.24,0002.28,0000.78
2023-10-20 17:41:00,SystemResetWarning,0832.0,5.01,000.00,028.4,024.7,000.0,036.7,030.0,14.0,0000.0,0011.77,0002.29,0000.77
2023-10-20 17:42:00,SystemResetWarning,0832.0,5.01,000.00,028.3,024.7,000.0,036.6,030.0,14.2,0000.0,0011.30,0002.40,0000.78
2023-10-20 17:43:00,SystemResetWarning,0832.0,5.00,000.00,028.3,025.0,000.0,036.7,029.9,14.1,0000.0,0011.42,0002.42,0000.79
2023-10-20 17:44:00,SystemResetWarning,0832.0,5.01,000.00,028.2,025.4,000.0,036.7,029.8,14.1,0000.0,0012.13,0002.49,0000.80
2023-10-20 17:45:00,SystemResetWarning,0832.0,4.99,000.00,028.2,025.8,000.0,036.7,029.9,14.4,0000.0,0012.60,0002.46,0000.80
2023-10-20 17:46:00,SystemResetWarning,0832.0,4.99,000.00,028.2,026.2,000.0,036.7,030.0,14.3,0000.0,0013.55,0002.48,0000.82
2023-10-20 17:47:00,SystemResetWarning,0832.0,5.01,000.00,028.3,026.5,000.0,036.7,030.0,14.2,0000.0,0013.60,0002.51,0000.81
2023-10-20 17:48:00,SystemResetWarning,0832.0,5.00,000.00,028.3,026.8,000.0,036.7,030.1,14.2,0000.0,0013.63,0002.52,0000.81
2023-10-20 17:49:00,SystemResetWarning,0832.0,5.00,000.00,028.4,027.1,000.0,036.7,030.2,13.8,0000.0,0013.39,0002.49,0000.79
2023-10-20 17:50:00,SystemResetWarning,0832.0,4.99,000.00,028.4,027.1,000.0,036.8,030.3,13.6,0000.0,0013.75,0002.45,0000.79
2023-10-20 17:51:00,SystemResetWarning,0832.0,4.99,000.00,028.4,025.6,000.0,036.7,030.1,13.4,0000.0,0014.02,0002.49,0000.80
2023-10-20 17:52:00,SystemResetWarning,0831.9,5.01,000.00,028.3,024.5,000.0,036.6,029.9,13.5,0000.0,0013.65,0002.47,0000.80
2023-10-20 17:53:00,SystemResetWarning,0831.9,5.01,000.00,028.3,024.7,000.0,036.6,029.9,13.6,0000.0,0013.96,0002.32,0000.78
2023-10-20 17:54:00,SystemResetWarning,0831.9,5.00,000.00,028.2,025.1,000.0,036.6,029.7,13.7,0000.0,0013.81,0002.25,0000.78
2023-10-20 17:55:00,SystemResetWarning,0831.9,5.00,000.00,028.2,025.5,000.0,036.6,029.8,13.4,0000.0,0013.13,0002.18,0000.78
2023-10-20 17:56:00,SystemResetWarning,0831.9,5.00,000.00,028.2,025.9,000.0,036.6,029.9,13.6,0000.0,0011.91,0002.15,0000.76
2023-10-20 17:57:00,SystemResetWarning,0831.9,5.00,000.00,028.2,026.3,000.0,036.7,030.0,13.7,0000.0,0009.89,0002.09,0000.75
2023-10-20 17:58:00,SystemResetWarning,0831.9,5.00,000.00,028.3,026.6,000.0,036.7,030.1,13.8,0000.0,0009.57,0002.04,0000.75
2023-10-20 17:59:00,SystemResetWarning,0831.9,5.00,000.00,028.3,026.9,000.0,036.7,030.1,13.6,0000.0,0010.16,0002.07,0000.75
